Location: Atherton
(17.2661°S, 145.4859°E)
Time: 00:04:01
(UTC+10:00)

Vanguard 1 - Pass Details

Date: 30 June 2025
Orbit: 649 x 3822 km, 34.2° (Epoch: 17 July)

Event Time Altitude Azimuth Distance (km) Brightness Sun altitude
Rises 22:46:57 0° 239° (WSW) 5,631 14.1 -67.0°
Enters shadow 22:49:51 - 234° (SW) 4,718 13.7 -67.7°
Reaches altitude 10° 22:51:57 10° 229° (SW) 4,044 - -68.1°
Maximum altitude 23:00:07 30° 172° (S) 1,958 - -70.0°
Drops below altitude 10° 23:05:19 10° 110° (ESE) 2,525 - -71.1°
Sets 23:07:41 0° 98° (E) 3,253 - -71.7°
